• In Russia
  • List of Countries
  • For 7 days
  • Water Temperature
  • Satellite Maps
  • Weather Map
  • Weather Widgets
  • user-avatar
    Login

    Hourly Weather Kuncy

    Today, 18 August, Saturday

    Time Temperature Precipitation Wind Pressure Humidity
    00:00 +17°C° 0 mm 2 mps 749 mmHg 94%
    01:00 +17°C° 0 mm 2 mps 749 mmHg 94%
    02:00 +16°C° 0 mm 2 mps 749 mmHg 94%
    03:00 +16°C° 0.1 mm 2 mps 749 mmHg 95%
    04:00 +16°C° 0.1 mm 2 mps 749 mmHg 95%
    05:00 +16°C° 0.1 mm 2 mps 749 mmHg 95%
    06:00 +17°C° 0.1 mm 2 mps 749 mmHg 92%
    07:00 +18°C° 0.1 mm 2 mps 749 mmHg 88%
    08:00 +20°C° 0.1 mm 3 mps 749 mmHg 84%
    09:00 +21°C° 0.2 mm 3 mps 749 mmHg 80%
    10:00 +22°C° 0.2 mm 3 mps 749 mmHg 76%
    11:00 +25°C° 0.2 mm 3 mps 749 mmHg 73%
    12:00 +25°C° 1.2 mm 3 mps 749 mmHg 74%
    13:00 +25°C° 1.2 mm 3 mps 749 mmHg 75%
    14:00 +25°C° 1.2 mm 3 mps 749 mmHg 76%
    15:00 +24°C° 0.8 mm 3 mps 749 mmHg 79%
    16:00 +24°C° 0.8 mm 3 mps 748 mmHg 83%
    17:00 +23°C° 0.8 mm 2 mps 748 mmHg 86%
    18:00 +21°C° 0 mm 2 mps 748 mmHg 88%
    19:00 +20°C° 0 mm 2 mps 748 mmHg 91%
    20:00 +20°C° 0 mm 2 mps 748 mmHg 93%
    21:00 +19°C° 0 mm 2 mps 748 mmHg 94%
    22:00 +19°C° 0 mm 2 mps 748 mmHg 94%
    23:00 +18°C° 0 mm 2 mps 748 mmHg 95%

    Tomorrow, 19 August, Sunday

    Time Temperature Precipitation Wind Pressure Humidity
    00:00 +18°C° 0.1 mm 2 mps 748 mmHg 95%
    01:00 +18°C° 0.1 mm 2 mps 748 mmHg 95%
    02:00 +18°C° 0.1 mm 1 mps 748 mmHg 95%
    03:00 +18°C° 0.1 mm 1 mps 748 mmHg 96%
    04:00 +18°C° 0.1 mm 1 mps 748 mmHg 96%
    05:00 +18°C° 0.1 mm 1 mps 748 mmHg 96%
    06:00 +19°C° 0.1 mm 1 mps 748 mmHg 93%
    07:00 +20°C° 0.1 mm 1 mps 748 mmHg 90%
    08:00 +22°C° 0.1 mm 1 mps 748 mmHg 87%
    09:00 +23°C° 0.8 mm 2 mps 748 mmHg 82%
    10:00 +25°C° 0.8 mm 2 mps 748 mmHg 76%
    11:00 +26°C° 0.8 mm 2 mps 748 mmHg 71%
    12:00 +26°C° 0.4 mm 2 mps 748 mmHg 67%
    13:00 +27°C° 0.4 mm 2 mps 748 mmHg 64%
    14:00 +28°C° 0.4 mm 2 mps 748 mmHg 60%
    15:00 +27°C° 0.7 mm 2 mps 748 mmHg 64%
    16:00 +26°C° 0.7 mm 2 mps 747 mmHg 68%
    17:00 +26°C° 0.7 mm 2 mps 747 mmHg 71%
    18:00 +24°C° 0 mm 2 mps 747 mmHg 74%
    19:00 +21°C° 0 mm 2 mps 747 mmHg 77%
    20:00 +19°C° 0 mm 2 mps 748 mmHg 81%
    21:00 +18°C° 0 mm 2 mps 748 mmHg 81%
    22:00 +17°C° 0 mm 2 mps 748 mmHg 81%
    23:00 +16°C° 0 mm 2 mps 748 mmHg 81%

    Day after tomorrow, 20 August, Monday

    Time Temperature Precipitation Wind Pressure Humidity
    00:00 +15°C° 0 mm 2 mps 748 mmHg 83%
    01:00 +15°C° 0 mm 1 mps 748 mmHg 85%
    02:00 +15°C° 0 mm 1 mps 747 mmHg 87%
    03:00 +15°C° 0 mm 1 mps 747 mmHg 89%
    04:00 +15°C° 0 mm 1 mps 747 mmHg 91%
    05:00 +15°C° 0 mm 1 mps 747 mmHg 93%
    06:00 +16°C° 0 mm 1 mps 748 mmHg 88%
    07:00 +19°C° 0 mm 1 mps 748 mmHg 83%
    08:00 +21°C° 0 mm 1 mps 748 mmHg 78%
    09:00 +21°C° 0 mm 2 mps 748 mmHg 72%
    10:00 +24°C° 0 mm 2 mps 748 mmHg 66%
    11:00 +25°C° 0 mm 2 mps 748 mmHg 60%
    12:00 +25°C° 0 mm 2 mps 747 mmHg 59%
    13:00 +26°C° 0 mm 2 mps 747 mmHg 57%
    14:00 +27°C° 0 mm 2 mps 747 mmHg 55%
    15:00 +26°C° 0 mm 2 mps 746 mmHg 58%
    16:00 +26°C° 0 mm 2 mps 746 mmHg 60%
    17:00 +26°C° 0 mm 2 mps 746 mmHg 63%
    18:00 +24°C° 0 mm 2 mps 746 mmHg 69%
    19:00 +21°C° 0 mm 2 mps 746 mmHg 74%
    20:00 +20°C° 0 mm 2 mps 745 mmHg 80%
    21:00 +19°C° 0 mm 2 mps 745 mmHg 81%
    22:00 +19°C° 0 mm 2 mps 745 mmHg 82%
    23:00 +19°C° 0 mm 2 mps 745 mmHg 83%

    21 August, Tuesday

    Time Temperature Precipitation Wind Pressure Humidity
    00:00 +18°C° 0 mm 2 mps 744 mmHg 83%
    01:00 +18°C° 0 mm 3 mps 744 mmHg 84%
    02:00 +18°C° 0 mm 3 mps 744 mmHg 85%
    03:00 +17°C° 0 mm 3 mps 743 mmHg 84%
    04:00 +17°C° 0 mm 3 mps 743 mmHg 84%
    05:00 +17°C° 0 mm 4 mps 743 mmHg 84%
    06:00 +19°C° 0 mm 4 mps 743 mmHg 80%
    07:00 +20°C° 0 mm 4 mps 742 mmHg 76%
    08:00 +21°C° 0 mm 5 mps 742 mmHg 72%
    09:00 +22°C° 0.5 mm 5 mps 742 mmHg 71%
    10:00 +23°C° 0.5 mm 5 mps 742 mmHg 71%
    11:00 +24°C° 0.5 mm 6 mps 742 mmHg 70%
    12:00 +24°C° 0.6 mm 6 mps 742 mmHg 71%
    13:00 +23°C° 0.6 mm 6 mps 742 mmHg 71%
    14:00 +23°C° 0.6 mm 7 mps 742 mmHg 71%
    15:00 +23°C° 0.2 mm 6 mps 742 mmHg 70%
    16:00 +22°C° 0.2 mm 5 mps 743 mmHg 68%
    17:00 +22°C° 0.2 mm 5 mps 743 mmHg 66%
    18:00 +20°C° 0 mm 4 mps 744 mmHg 69%
    19:00 +18°C° 0 mm 4 mps 744 mmHg 71%
    20:00 +17°C° 0 mm 3 mps 745 mmHg 74%
    21:00 +16°C° 0 mm 3 mps 745 mmHg 74%
    22:00 +14°C° 0 mm 3 mps 746 mmHg 75%
    23:00 +13°C° 0 mm 3 mps 746 mmHg 76%

    22 August, Wednesday

    Time Temperature Precipitation Wind Pressure Humidity
    00:00 +12°C° 0 mm 3 mps 747 mmHg 77%
    01:00 +12°C° 0 mm 3 mps 747 mmHg 79%
    02:00 +11°C° 0 mm 3 mps 748 mmHg 81%
    03:00 +10°C° 0 mm 3 mps 748 mmHg 84%
    04:00 +10°C° 0 mm 3 mps 748 mmHg 87%
    05:00 +9°C° 0 mm 3 mps 749 mmHg 90%
    06:00 +11°C° 0 mm 3 mps 749 mmHg 84%
    07:00 +12°C° 0 mm 3 mps 750 mmHg 78%
    08:00 +14°C° 0 mm 4 mps 750 mmHg 71%
    09:00 +15°C° 0 mm 4 mps 750 mmHg 65%
    10:00 +17°C° 0 mm 4 mps 750 mmHg 59%
    11:00 +19°C° 0 mm 4 mps 751 mmHg 53%
    12:00 +19°C° 0 mm 4 mps 751 mmHg 51%
    13:00 +20°C° 0 mm 4 mps 751 mmHg 49%
    14:00 +20°C° 0 mm 3 mps 751 mmHg 47%
    15:00 +20°C° 0 mm 3 mps 751 mmHg 49%
    16:00 +20°C° 0 mm 3 mps 751 mmHg 51%
    17:00 +20°C° 0 mm 2 mps 751 mmHg 53%
    18:00 +18°C° 0 mm 2 mps 751 mmHg 60%
    19:00 +16°C° 0 mm 2 mps 751 mmHg 66%
    20:00 +14°C° 0 mm 1 mps 751 mmHg 72%
    21:00 +13°C° 0 mm 1 mps 751 mmHg 74%
    22:00 +13°C° 0 mm 1 mps 751 mmHg 75%
    23:00 +11°C° 0 mm 0 mps 751 mmHg 77%

    23 August, Thursday

    Time Temperature Precipitation Wind Pressure Humidity
    00:00 +11°C° 0 mm 0 mps 751 mmHg 78%
    01:00 +12°C° 0 mm 1 mps 751 mmHg 78%
    02:00 +11°C° 0 mm 1 mps 751 mmHg 79%
    03:00 +11°C° 0 mm 1 mps 751 mmHg 80%
    04:00 +11°C° 0 mm 1 mps 751 mmHg 81%
    05:00 +11°C° 0 mm 1 mps 751 mmHg 82%
    06:00 +13°C° 0 mm 1 mps 751 mmHg 76%
    07:00 +14°C° 0 mm 2 mps 751 mmHg 71%
    08:00 +16°C° 0 mm 2 mps 751 mmHg 66%
    09:00 +18°C° 0 mm 2 mps 751 mmHg 60%
    10:00 +20°C° 0 mm 2 mps 751 mmHg 54%
    11:00 +21°C° 0 mm 3 mps 751 mmHg 49%
    12:00 +22°C° 0 mm 3 mps 751 mmHg 47%
    13:00 +24°C° 0 mm 3 mps 750 mmHg 46%
    14:00 +24°C° 0 mm 3 mps 750 mmHg 44%
    15:00 +24°C° 0 mm 3 mps 750 mmHg 48%
    16:00 +24°C° 0 mm 2 mps 750 mmHg 51%
    17:00 +24°C° 0 mm 2 mps 749 mmHg 54%
    18:00 +21°C° 0 mm 2 mps 749 mmHg 60%
    19:00 +19°C° 0 mm 2 mps 749 mmHg 66%
    20:00 +17°C° 0 mm 2 mps 749 mmHg 72%
    21:00 +16°C° 0 mm 2 mps 749 mmHg 74%
    22:00 +16°C° 0 mm 2 mps 749 mmHg 77%
    23:00 +15°C° 0 mm 2 mps 749 mmHg 79%
    Show more